Location: Unspecified
(0.0000°N, 0.0000°E)
Time: 18:54:33
(UTC+00:00)

Courier 1B Rocket - All Passes

Search period start: 30 October 2014 00:00
Search period end: 09 November 2014 00:00
Orbit: 921 x 1202 km, 28.3° (Epoch: 29 October)

Date Brightness Start Highest point End Pass type
(mag) Time Alt. Az. Time Alt. Az. Time Alt. Az.
30 Oct - 05:02:02 10° N 05:05:38 14° NNE 05:09:13 10° NE visible
30 Oct - 06:53:12 10° NW 07:00:20 39° NNE 07:07:10 10° E daylight
30 Oct - 08:46:41 10° WNW 08:54:13 67° SSW 09:01:16 10° SE daylight
30 Oct - 10:43:06 10° WSW 10:48:05 20° SSW 10:52:52 10° SSE daylight
30 Oct - 18:23:49 10° SSW 18:29:02 27° SSE 18:34:23 10° E visible
30 Oct - 20:16:07 10° WSW 20:22:31 81° NNW 20:29:21 10° ENE visible
30 Oct - 22:11:09 10° WNW 22:16:21 24° NNW 22:21:51 10° NNE night (unlit)
31 Oct - 05:52:31 10° NNW 05:58:57 28° NNE 06:05:14 10° E daylight
31 Oct - 07:45:16 10° WNW 07:53:02 84° NNE 08:00:22 10° ESE daylight
31 Oct - 09:40:31 10° W 09:46:50 30° SSW 09:52:50 10° SSE daylight
31 Oct - 17:23:52 10° SSW 17:27:55 18° SSE 17:32:01 10° ESE daylight
31 Oct - 19:15:19 10° SW 19:21:34 67° SSE 19:28:07 10° ENE visible
31 Oct - 21:09:21 10° W 21:15:08 34° NNW 21:21:16 10° NE visible
31 Oct - 23:07:50 10° NNW 23:09:39 11° NNW 23:11:31 10° N night (unlit)
01 Nov - 04:52:05 10° NNW 04:57:27 20° NNE 05:02:46 10° ENE visible
01 Nov - 06:44:07 10° NW 06:51:47 59° NNE 06:59:09 10° ESE daylight
01 Nov - 08:38:24 10° W 08:45:37 44° SSW 08:52:27 10° SE daylight
01 Nov - 10:36:30 10° SW 10:39:49 14° SSW 10:43:04 10° S daylight
01 Nov - 16:24:41 10° S 16:26:41 12° SSE 16:28:41 10° SE daylight
01 Nov - 18:14:45 10° SW 18:20:37 42° SSE 18:26:38 10° E visible
01 Nov - 20:07:56 10° WSW 20:14:03 50° NNW 20:20:31 10° NE visible
01 Nov - 22:04:24 10° WNW 22:08:09 15° NNW 22:12:01 10° NNE night (unlit)
02 Nov - 03:52:06 10° N 03:55:49 14° NNE 03:59:34 10° NE visible
02 Nov - 05:43:13 10° NW 05:50:28 41° NNE 05:57:34 10° E daylight
02 Nov - 07:36:41 10° WNW 07:44:24 66° SSW 07:51:46 10° SE daylight
02 Nov - 09:33:07 10° WSW 09:38:25 20° SSW 09:43:31 10° SSE daylight
02 Nov - 17:14:25 10° SSW 17:19:37 27° SSE 17:24:51 10° E daylight
02 Nov - 19:06:49 10° WSW 19:13:05 78° NNW 19:19:36 10° NE visible
02 Nov - 21:02:00 10° WNW 21:06:49 22° NNW 21:11:50 10° NNE visible
03 Nov - 04:42:35 10° NNW 04:49:04 29° NNE 04:55:33 10° E visible
03 Nov - 06:35:17 10° WNW 06:43:09 86° NNE 06:50:47 10° ESE daylight
03 Nov - 08:30:32 10° W 08:37:05 30° SSW 08:43:22 10° SSE daylight
03 Nov - 16:14:21 10° SSW 16:18:31 18° SSE 16:22:39 10° ESE daylight
03 Nov - 18:05:58 10° SW 18:12:10 68° SSE 18:18:29 10° ENE visible
03 Nov - 20:00:08 10° W 20:05:39 32° NNW 20:11:24 10° NNE visible
04 Nov - 03:42:14 10° NNW 03:47:35 20° NNE 03:53:00 10° ENE visible
04 Nov - 05:34:11 10° NW 05:41:52 60° NNE 05:49:29 10° ESE daylight
04 Nov - 07:28:26 10° W 07:35:47 44° SSW 07:42:53 10° SE daylight
04 Nov - 09:26:26 10° SW 09:30:08 14° SSW 09:33:46 10° S daylight
04 Nov - 15:14:50 10° S 15:17:15 12° SSE 15:19:38 10° SE daylight
04 Nov - 17:05:19 10° SW 17:11:14 43° SSE 17:17:08 10° E daylight
04 Nov - 18:58:39 10° WSW 19:04:38 48° NNW 19:10:47 10° NE visible
04 Nov - 20:55:27 10° NW 20:58:38 14° NNW 21:01:53 10° N visible
05 Nov - 02:42:24 10° N 02:46:01 14° NNE 02:49:42 10° NE visible
05 Nov - 04:33:21 10° NW 04:40:33 42° NNE 04:47:49 10° E visible
05 Nov - 06:26:45 10° WNW 06:34:30 65° SSW 06:42:07 10° SE daylight
05 Nov - 08:23:08 10° WSW 08:28:39 21° SSW 08:34:01 10° SSE daylight
05 Nov - 16:04:52 10° SSW 16:10:14 28° SSE 16:15:29 10° E daylight
05 Nov - 17:57:28 10° WSW 18:03:42 75° NNW 18:09:59 10° NE visible
05 Nov - 19:52:52 10° WNW 19:57:21 20° NNW 20:01:57 10° NNE visible
06 Nov - 03:32:48 10° NNW 03:39:11 29° NNE 03:45:44 10° E visible
06 Nov - 05:25:24 10° WNW 05:33:13 88° NNE 05:41:03 10° ESE daylight
06 Nov - 07:20:35 10° W 07:27:15 30° SSW 07:33:46 10° SSE daylight
06 Nov - 15:04:38 10° SSW 15:09:06 19° SSE 15:13:26 10° ESE daylight
06 Nov - 16:56:30 10° SW 17:02:47 71° SSE 17:09:00 10° ENE daylight
06 Nov - 18:50:53 10° W 18:56:14 30° NNW 19:01:41 10° NNE visible
07 Nov - 02:32:34 10° NNW 02:37:46 20° NNE 02:43:06 10° ENE visible
07 Nov - 04:24:22 10° NW 04:31:56 62° NNE 04:39:40 10° ESE visible
07 Nov - 06:18:33 10° W 06:25:53 44° SSW 06:33:11 10° SE daylight
07 Nov - 08:16:25 10° SW 08:20:23 15° SSW 08:24:18 10° S daylight
07 Nov - 14:04:48 10° S 14:07:48 13° SSE 14:10:44 10° SE daylight
07 Nov - 15:55:45 10° SW 16:01:51 45° SSE 16:07:46 10° E daylight
07 Nov - 17:49:17 10° WSW 17:55:15 46° NNW 18:01:12 10° NE daylight
07 Nov - 19:46:30 10° NW 19:49:10 13° NNW 19:51:53 10° N visible
08 Nov - 01:32:55 10° N 01:36:16 13° NNE 01:39:41 10° NE visible
08 Nov - 03:23:38 10° NW 03:30:39 42° NNE 03:37:56 10° E visible
08 Nov - 05:16:55 10° WNW 05:24:34 63° SSW 05:32:19 10° SE visible
08 Nov - 07:13:13 10° WSW 07:18:49 21° SSW 07:24:22 10° SSE daylight
08 Nov - 14:55:10 10° SSW 15:00:49 30° SSE 15:06:14 10° E daylight
08 Nov - 16:47:59 10° WSW 16:54:20 73° NNW 17:00:31 10° NE daylight
08 Nov - 18:43:39 10° WNW 18:47:56 19° NNW 18:52:15 10° NNE visible
